Healy, AK

6:19 AM AKST on February 24, 2017 (GMT -0900)
McKinley National Park

Weather History for PAIN - December, 2011

Change the Weather History Date:

Tuesday, December 20, 2011

  Actual Average Record
Temperature  
Mean Temperature 18 °F -  
Max Temperature 26 °F 17 °F 44 °F (1969)
Min Temperature 10 °F 0 °F -41 °F (2012)
Degree Days  
Heating Degree Days 47    
Moisture  
Dew Point 14 °F    
Average Humidity 84    
Maximum Humidity 100    
Minimum Humidity 64    
Precipitation  
Precipitation 0.00 in - - ()
Sea Level Pressure  
Sea Level Pressure 29.56 in    
Wind  
Wind Speed 2 mph (South)    
Max Wind Speed 13 mph    
Max Gust Speed 21 mph    
Visibility 10 miles    
Events      
Averages and records for this station are not official NWS values.
T = Trace of Precipitation, MM = Missing Value Source: NWS Daily Summary

Daily Weather History Graph

Daily Weather History Graph

Search for Another Location

Airport or City:

Trip Planner

Search our weather history database for the weather conditions in past years. The results will help you decide how hot, cold, wet, or windy it might be!

Date:

Astronomy

Dec. 20, 2011 Rise Set
Actual Time 10:42 AM AKST 3:03 PM AKST
Civil Twilight 9:26 AM AKST 4:19 PM AKST
Nautical Twilight 8:19 AM AKST 5:27 PM AKST
Astronomical Twilight 7:20 AM AKST 6:26 PM AKST
Moon 5:14 AM AKST (12/20) 12:40 PM AKST (12/20)
Length of Visible Light 6h 53m
Length of Day
4h 21m
Waning Crescent, 20% of the Moon is Illuminated
Dec 20
Waning Crescent
Dec 24
New
Dec 31
First Quarter
Jan 8
Full
Jan 16
Last Quarter

Hourly Weather History & Observations

Time (AKST) Temp. Windchill Dew Point Humidity Pressure Visibility Wind Dir Wind Speed Gust Speed Precip Events Conditions
12:16 AM 17.6 °F - 14.0 °F 86% 29.48 in 10.0 mi Calm Calm - N/A   Clear
12:36 AM 15.8 °F - 12.2 °F 86% 29.48 in 10.0 mi Calm Calm - N/A   Clear
12:56 AM 14.0 °F - 10.4 °F 86% 29.49 in 10.0 mi Calm Calm - N/A   Clear
1:16 AM 12.2 °F - 10.4 °F 92% 29.49 in 10.0 mi Calm Calm - N/A   Clear
1:36 AM 12.2 °F - 10.4 °F 92% 29.50 in 10.0 mi Calm Calm - N/A   Clear
1:56 AM 12.2 °F - 10.4 °F 92% 29.50 in 10.0 mi Calm Calm - N/A   Clear
2:16 AM 10.4 °F - 8.6 °F 92% 29.50 in 10.0 mi Calm Calm - N/A   Clear
2:36 AM 10.4 °F 4.0 °F 8.6 °F 92% 29.51 in 10.0 mi SW 3.5 mph - N/A   Clear
2:56 AM 12.2 °F - 10.4 °F 92% 29.52 in 10.0 mi Calm Calm - N/A   Clear
3:16 AM 10.4 °F - 10.4 °F 100% 29.52 in 10.0 mi Calm Calm - N/A   Clear
3:56 AM 10.4 °F - 8.6 °F 92% 29.54 in 10.0 mi Calm Calm - N/A   Scattered Clouds
4:16 AM 12.2 °F - 10.4 °F 92% 29.54 in 10.0 mi Calm Calm - N/A   Clear
4:56 AM 12.2 °F - 10.4 °F 92% 29.56 in 10.0 mi Calm Calm - N/A   Scattered Clouds
5:16 AM 10.4 °F - 10.4 °F 100% 29.57 in 10.0 mi Calm Calm - N/A   Scattered Clouds
5:36 AM 12.2 °F - 10.4 °F 92% 29.57 in 10.0 mi Calm Calm - N/A   Overcast
5:56 AM 12.2 °F - 10.4 °F 92% 29.58 in 10.0 mi Calm Calm - N/A   Overcast
6:16 AM 12.2 °F - 10.4 °F 92% 29.59 in 10.0 mi Calm Calm - N/A   Overcast
6:36 AM 12.2 °F - 12.2 °F 100% 29.60 in 10.0 mi Calm Calm - N/A   Mostly Cloudy
6:56 AM 12.2 °F - 10.4 °F 92% 29.61 in 10.0 mi Calm Calm - N/A   Scattered Clouds
7:16 AM 12.2 °F - 10.4 °F 92% 29.61 in 10.0 mi Calm Calm - N/A   Mostly Cloudy
7:36 AM 10.4 °F - 8.6 °F 92% 29.62 in 10.0 mi Calm Calm - N/A   Mostly Cloudy
7:56 AM 10.4 °F - 8.6 °F 92% 29.62 in 10.0 mi Calm Calm - N/A   Overcast
8:16 AM 10.4 °F - 10.4 °F 100% 29.63 in 10.0 mi Calm Calm - N/A   Overcast
8:36 AM 10.4 °F - 10.4 °F 100% 29.63 in 10.0 mi Calm Calm - N/A   Overcast
8:56 AM 10.4 °F - 10.4 °F 100% 29.63 in 10.0 mi Calm Calm - N/A   Overcast
9:16 AM 10.4 °F 4.0 °F 8.6 °F 92% 29.63 in 10.0 mi SW 3.5 mph - N/A   Overcast
9:36 AM 12.2 °F 2.9 °F 12.2 °F 100% 29.63 in 10.0 mi SSW 5.8 mph - N/A   Overcast
9:56 AM 15.8 °F 10.2 °F 14.0 °F 93% 29.64 in 10.0 mi SW 3.5 mph - N/A   Overcast
10:16 AM 15.8 °F - 14.0 °F 93% 29.63 in 10.0 mi Calm Calm - N/A   Overcast
10:36 AM 19.4 °F - 19.4 °F 100% 29.63 in 10.0 mi Calm Calm - N/A   Overcast
10:56 AM 23.0 °F - 19.4 °F 86% 29.63 in 10.0 mi Calm Calm - N/A   Overcast
11:16 AM 24.8 °F - 19.4 °F 80% 29.63 in 10.0 mi Calm Calm - N/A   Overcast
11:36 AM 24.8 °F 20.5 °F 19.4 °F 80% 29.63 in 10.0 mi South 3.5 mph - N/A   Overcast
11:56 AM 24.8 °F 16.9 °F 19.4 °F 80% 29.63 in 10.0 mi SSE 6.9 mph - N/A   Overcast
12:16 PM 24.8 °F 15.3 °F 19.4 °F 80% 29.62 in 10.0 mi SSE 9.2 mph - N/A   Overcast
12:36 PM 24.8 °F 19.1 °F 19.4 °F 80% 29.62 in 10.0 mi SSE 4.6 mph - N/A   Overcast
12:56 PM 24.8 °F 19.1 °F 17.6 °F 74% 29.61 in 10.0 mi SSE 4.6 mph - N/A   Overcast
1:16 PM 24.8 °F 16.9 °F 17.6 °F 74% 29.61 in 10.0 mi South 6.9 mph - N/A   Overcast
1:36 PM 24.8 °F - 17.6 °F 74% 29.60 in 10.0 mi Calm Calm - N/A   Overcast
1:56 PM 24.8 °F 17.9 °F 17.6 °F 74% 29.59 in 10.0 mi South 5.8 mph - N/A   Overcast
2:16 PM 24.8 °F 16.1 °F 17.6 °F 74% 29.57 in 10.0 mi South 8.1 mph - N/A   Scattered Clouds
2:36 PM 24.8 °F 15.3 °F 17.6 °F 74% 29.56 in 10.0 mi South 9.2 mph 16.1 mph N/A   Mostly Cloudy
2:56 PM 24.8 °F 13.4 °F 17.6 °F 74% 29.53 in 10.0 mi South 12.7 mph 18.4 mph N/A   Mostly Cloudy
3:16 PM 26.6 °F 16.8 °F 15.8 °F 64% 29.52 in 10.0 mi SSW 10.4 mph 20.7 mph N/A   Scattered Clouds
3:36 PM 26.6 °F 16.8 °F 15.8 °F 64% 29.50 in 10.0 mi SSW 10.4 mph - N/A   Scattered Clouds
3:56 PM 26.6 °F 17.5 °F 15.8 °F 64% 29.49 in 10.0 mi SSW 9.2 mph 20.7 mph N/A   Mostly Cloudy
4:16 PM 26.6 °F 18.2 °F 15.8 °F 64% 29.48 in 10.0 mi SSW 8.1 mph - N/A   Overcast
4:36 PM 26.6 °F 19.1 °F 15.8 °F 64% 29.46 in 10.0 mi SSW 6.9 mph - N/A   Overcast
4:56 PM 26.6 °F 16.2 °F 15.8 °F 64% 29.45 in 10.0 mi South 11.5 mph 17.3 mph N/A   Overcast
5:16 PM 26.6 °F 15.7 °F 15.8 °F 64% 29.45 in 10.0 mi South 12.7 mph 20.7 mph N/A   Overcast
5:36 PM 26.6 °F 18.2 °F 17.6 °F 69% 29.45 in 10.0 mi South 8.1 mph - N/A   Overcast
5:56 PM 26.6 °F 21.2 °F 17.6 °F 69% 29.43 in 10.0 mi South 4.6 mph - N/A   Overcast
6:16 PM 26.6 °F 18.2 °F 17.6 °F 69% 29.43 in 10.0 mi SSE 8.1 mph - N/A   Overcast
6:36 PM 26.6 °F 20.0 °F 19.4 °F 74% 29.41 in 10.0 mi SSE 5.8 mph - N/A   Overcast
6:56 PM 26.6 °F 20.0 °F 19.4 °F 74% 29.39 in 10.0 mi South 5.8 mph - N/A   Overcast
7:16 PM 26.6 °F 18.2 °F 19.4 °F 74% 29.38 in 10.0 mi South 8.1 mph - N/A   Overcast
7:36 PM 26.6 °F 19.1 °F 21.2 °F 80% 29.37 in 9.0 mi South 6.9 mph - N/A   Overcast
7:56 PM 26.6 °F 20.0 °F 21.2 °F 80% 29.35 in 8.0 mi SW 5.8 mph - N/A   Overcast
8:16 PM 26.6 °F 20.0 °F 23.0 °F 86% 29.35 in 7.0 mi SW 5.8 mph - N/A   Overcast
8:36 PM 26.6 °F 19.1 °F 23.0 °F 86% 29.34 in 8.0 mi SW 6.9 mph - N/A   Overcast
8:56 PM 26.6 °F 20.0 °F 23.0 °F 86% 29.33 in 9.0 mi SW 5.8 mph - N/A   Overcast
9:16 PM 26.6 °F 22.6 °F 23.0 °F 86% 29.32 in 9.0 mi SW 3.5 mph - N/A   Overcast
9:36 PM 26.6 °F - 23.0 °F 86% 29.31 in 9.0 mi Calm Calm - N/A   Overcast
9:56 PM 26.6 °F - 24.8 °F 93% 29.31 in 3.0 mi Calm Calm - N/A   Overcast
10:16 PM 26.6 °F 21.2 °F 24.8 °F 93% 29.30 in 2.5 mi SSW 4.6 mph - N/A   Overcast
10:36 PM 26.6 °F 22.6 °F 26.6 °F 100% 29.30 in 3.0 mi SSW 3.5 mph - N/A   Overcast
10:56 PM 26.6 °F 19.1 °F 26.6 °F 100% 29.29 in 2.0 mi South 6.9 mph - N/A   Overcast
11:16 PM 26.6 °F 21.2 °F 26.6 °F 100% 29.28 in 1.8 mi South 4.6 mph - N/A   Overcast
11:36 PM 26.6 °F 22.6 °F 24.8 °F 93% 29.28 in 1.8 mi South 3.5 mph - N/A   Overcast
11:56 PM 26.6 °F 19.1 °F 24.8 °F 93% 29.28 in 2.5 mi SSW 6.9 mph - N/A   Overcast